Ketchikan, AK

8:57 AM AKDT on July 25, 2017 (GMT -0800)
Ketchikan International

Weather History for PAKT - October, 2013

Change the Weather History Date:

Wednesday, October 16, 2013

  Actual Average Record
Temperature  
Mean Temperature 54 °F -  
Max Temperature 53 °F 50 °F 63 °F (2015)
Min Temperature 42 °F 38 °F 24 °F (1992)
Degree Days  
Heating Degree Days 10    
Growing Degree Days 4 (Base 50)    
Moisture  
Dew Point 44 °F    
Average Humidity 87    
Maximum Humidity 100    
Minimum Humidity 69    
Precipitation  
Precipitation 0.00 in - - ()
Sea Level Pressure  
Sea Level Pressure 30.32 in    
Wind  
Wind Speed 9 mph (NW)    
Max Wind Speed 16 mph    
Max Gust Speed 33 mph    
Visibility 10 miles    
Events      
Averages and records for this station are not official NWS values.
T = Trace of Precipitation, MM = Missing Value Source: NWS Daily Summary

Daily Weather History Graph

Daily Weather History Graph

Search for Another Location

Airport or City:

Trip Planner

Search our weather history database for the weather conditions in past years. The results will help you decide how hot, cold, wet, or windy it might be!

Date:

Astronomy

Oct. 16, 2013 Rise Set
Actual Time 7:19 AM AKDT 5:43 PM AKDT
Civil Twilight 6:42 AM AKDT 6:20 PM AKDT
Nautical Twilight 6:00 AM AKDT 7:03 PM AKDT
Astronomical Twilight 5:17 AM AKDT 7:45 PM AKDT
Moon 4:42 PM AKDT (10/16) 4:35 AM AKDT (10/16)
Length of Visible Light 11h 38m
Length of Day
10h 23m
Waxing Gibbous, 95% of the Moon is Illuminated
Oct 16
Waxing Gibbous
Oct 18
Full
Oct 26
Last Quarter
Nov 3
New
Nov 9
First Quarter

Hourly Weather History & Observations

Time (AKDT) Temp. Windchill Dew Point Humidity Pressure Visibility Wind Dir Wind Speed Gust Speed Precip Events Conditions
12:53 AM 46.0 °F 41.9 °F 44.1 °F 93% 30.39 in 10.0 mi WNW 8.1 mph - N/A   Clear
1:53 AM 46.0 °F 41.4 °F 44.1 °F 93% 30.40 in 10.0 mi NW 9.2 mph - N/A   Clear
2:53 AM 45.0 °F 41.2 °F 43.0 °F 93% 30.38 in 10.0 mi NW 6.9 mph - N/A   Clear
3:53 AM 46.0 °F 41.0 °F 43.0 °F 89% 30.37 in 10.0 mi NW 10.4 mph - N/A   Clear
4:53 AM 45.0 °F 42.6 °F 43.0 °F 93% 30.36 in 10.0 mi NW 4.6 mph - N/A   Partly Cloudy
5:53 AM 46.0 °F 43.1 °F 44.1 °F 93% 30.36 in 10.0 mi WNW 5.8 mph - N/A   Mostly Cloudy
6:53 AM 46.0 °F 41.4 °F 43.0 °F 89% 30.35 in 10.0 mi NW 9.2 mph - N/A   Scattered Clouds
7:53 AM 46.0 °F 40.6 °F 43.0 °F 89% 30.36 in 10.0 mi NW 11.5 mph - N/A   Partly Cloudy
8:53 AM 46.9 °F - 44.1 °F 90% 30.35 in 10.0 mi NW 9.2 mph - N/A   Partly Cloudy
9:53 AM 48.9 °F - 44.1 °F 83% 30.36 in 10.0 mi NW 8.1 mph - N/A   Scattered Clouds
10:45 AM 66.2 °F - 62.6 °F 88% 30.00 in 4.0 mi Calm Calm - N/A   Overcast
10:53 AM 50.0 °F - 44.1 °F 80% 30.35 in 10.0 mi NW 9.2 mph - N/A   Scattered Clouds
11:53 AM 51.1 °F - 43.0 °F 74% 30.35 in 10.0 mi NW 11.5 mph - N/A   Mostly Cloudy
12:53 PM 51.1 °F - 42.1 °F 71% 30.35 in 10.0 mi NW 11.5 mph 19.6 mph N/A   Mostly Cloudy
1:53 PM 53.1 °F - 43.0 °F 69% 30.33 in 10.0 mi NNW 16.1 mph 33.4 mph N/A   Clear
2:53 PM 51.1 °F - 43.0 °F 74% 30.33 in 10.0 mi NNW 15.0 mph 24.2 mph N/A   Scattered Clouds
3:53 PM 51.1 °F - 44.1 °F 77% 30.31 in 10.0 mi NNW 12.7 mph 21.9 mph N/A   Partly Cloudy
4:53 PM 48.9 °F - 44.1 °F 83% 30.30 in 10.0 mi WNW 12.7 mph 19.6 mph N/A   Partly Cloudy
5:53 PM 48.0 °F - 44.1 °F 86% 30.30 in 10.0 mi WNW 9.2 mph - N/A   Partly Cloudy
6:53 PM 46.9 °F - 43.0 °F 86% 30.29 in 10.0 mi NW 6.9 mph - N/A   Clear
7:53 PM 46.9 °F - 43.0 °F 86% 30.29 in 10.0 mi NW 8.1 mph - N/A   Clear
8:53 PM 46.0 °F 41.9 °F 44.1 °F 93% 30.30 in 10.0 mi NW 8.1 mph - N/A   Clear
9:53 PM 44.1 °F 40.8 °F 43.0 °F 96% 30.30 in 10.0 mi NW 5.8 mph - N/A   Clear
10:53 PM 43.0 °F 39.5 °F 43.0 °F 100% 30.30 in 10.0 mi NW 5.8 mph - N/A   Clear
11:53 PM 42.1 °F 38.4 °F 42.1 °F 100% 30.29 in 10.0 mi WNW 5.8 mph - N/A   Clear